Weather Roundup
Issued by NWS Corpus Christi, TX

Home | Current Version | Previous Version | Text Only | Print | Product List | Glossary On
Versions: 1 2 3 4 5 6 7 8 9 10 11 12 13 14 15 16 17 18 19 20 21 22 23 24 25 26 27 28 29 30 31 32 33 34 35 36 37 38 39 40 41 42 43 44 45 46 47 48 49 50
000
ASUS44 KCRP 041810
HRRCRP

SOUTH TEXAS REGIONAL WEATHER ROUNDUP
NATIONAL WEATHER SERVICE CORPUS CHRISTI TX
100 PM CDT TUE AUG 04 2015


TXZ229>244-041900-
...CORPUS CHRISTI AREA OBSERVATIONS...

CITY           SKY/WX    TMP DP  RH WIND       PRES   REMARKS
CORPUS CHRISTI PTSUNNY   91  77  63 SE13G21   29.94F HX 104
NAS CORPUS CHR MOSUNNY   89  76  65 S15       29.95F HX 100
ROCKPORT       MOSUNNY   90  75  61 S13       29.96S HX 100
KINGSVILLE NAS MOSUNNY   95  76  53 SE9       29.93F HX 108
ALICE          SUNNY     94  72  48 SE16      29.92F HX 102
FALFURRIAS     SUNNY     96  70  42 S10G18    29.92F HX 102
$$

...VICTORIA AREA OBSERVATIONS...

CITY           SKY/WX    TMP DP  RH WIND       PRES   REMARKS
VICTORIA       MOSUNNY   94  69  44 SE8       29.96F HX  99
BEEVILLE       FAIR      91  74  57 S12       29.95F HX 101
PLEASANTON     SUNNY     95  68  40 SE5       29.95F HX  99
SAN ANTONIO    MOSUNNY   93  70  46 VRB6G17   29.97F HX  99
$$

...LAREDO AREA OBSERVATIONS...

CITY           SKY/WX    TMP DP  RH WIND       PRES   REMARKS
LAREDO         SUNNY     99  66  33 S8G16     29.93F HX 102
COTULLA        SUNNY     95  69  42 S7        29.93F HX 100
DEL RIO        SUNNY     93  71  48 SE9       29.93F HX 100
MCALLEN        MOSUNNY   99  71  40 SE13G25   29.91F HX 107
HEBBRONVILLE     N/A     96  61  31 E9G20     29.94F HX  96
$$

...OTHER TEXAS OBSERVATIONS...

CITY           SKY/WX    TMP DP  RH WIND       PRES   REMARKS
BROWNSVILLE    MOSUNNY   94  75  54 S20       29.93F HX 105
HOUSTON        MOSUNNY   94  72  48 SW6       29.96F HX 102
COL. STATION   MOSUNNY   94  69  44 SE13      29.97F HX  99
AUSTIN         MOSUNNY   92  70  48 SW10      29.96F HX  97
WACO           SUNNY     94  69  44 S9        29.96F HX  99
FORT WORTH     PTSUNNY   95  65  37 SE13G18   29.95F HX  97
WICHITA FALLS  PTSUNNY   87  69  54 S13       29.95S HX  91
LUBBOCK        MOSUNNY   86  65  49 S12G21    30.03F
EL PASO        MOSUNNY   89  56  32 SW5       30.09S
$$

...MARINE OBSERVATIONS...

STATION/POSITION TIME  SKY/WX   TEMP    WIND        PRES    VSBY  WAVE   SWELL
                                AIR SEA DIR/SP/G                  HT/PER HT/PER
                 (UTC)          (F)     (DEG/KT/KT) (MB)    (MI)  (FT/S) (FT/S)
PORT ARANSAS     1800            84 86  140/  9/ 10 1015.4F
BUOY 90 E PORT A 1750            85 86  180/  8/ 10 1015.3F         2/ 5   2/ 5
BUOY 45 SE BAFFI 1750            84 85  150/ 12/ 14 1014.1F         2/ 5   2/ 5
BUOY 200 E PT IS 1750            86 86  150/  8/ 10 1016.2F         2/ 6   2/ 6
BUOY 15 E GALVES 1750            86 88  180/  4/  6 1015.2F         2/ 4   2/ 4
$$



USA.gov is the U.S. government's official web portal to all federal, state and local government web resources and services.